Location: Bothell
(47.7630°N, 122.2040°W)
Time: 17:13:42
(UTC-07:00)

Amateur Radio Satellites - All Passes

Search period start: 17 April 2014 16:43
Search period end: 18 April 2014 16:43
Location: Bothell, 47.7630°N, 122.2040°W

Satellite Date Start Highest point End Downlink Frequencies (MHz)
Time Altitude Azimuth
OPAL 17 Apr 16:53:52 16:58:51 46° 295° (WNW) 17:03:49 ?
Hamsat 17 Apr 17:09:04 17:11:25 15° 60° (ENE) 17:13:47 145.90 MHz
JAS-1B 17 Apr 17:17:17 17:24:33 35° 264° (W) 17:30:49 435.800 - 435.900 CW/SSB
Saudisat 1A 17 Apr 17:30:35 17:31:11 10° 13° (NNE) 17:31:47 436.775 MHz
ISS 17 Apr 17:31:53 17:35:13 68° 152° (SSE) 17:38:34 145.800 FM
RS-15 17 Apr 17:37:32 17:47:52 51° 246° (WSW) 17:58:27 29.354 - 29.394 USB, Beacon 29.352 USB
JAS-2 17 Apr 17:37:37 17:40:44 15° 56° (NE) 17:43:44 435.800 - 435.900 CW/SSB, 435.910 FM
AO-7 17 Apr 17:49:07 17:56:34 36° 264° (W) 18:04:05 29.400 - 29.500 MHz
SO-50 17 Apr 17:55:08 17:59:24 41° 317° (NW) 18:03:43 436.795 FM
Uosat F 17 Apr 17:55:20 17:57:38 13° 273° (W) 17:59:57 435.120 FM
SO-67 17 Apr 18:20:14 18:21:49 13° 62° (ENE) 18:23:24 435.3500 MHz FM
Hamsat 17 Apr 18:42:43 18:46:54 69° 258° (WSW) 18:51:09 145.90 MHz
UOSAT-12 17 Apr 18:48:42 18:53:10 56° 122° (ESE) 18:57:45 437.025 FM, 437.400 FM
HO-68 17 Apr 18:49:43 18:52:39 13° 41° (NE) 18:55:35 435.675 MHz FM
Saudisat 1A 17 Apr 19:08:37 19:12:20 25° 36° (NE) 19:16:02 436.775 MHz
ISS 17 Apr 19:08:52 19:12:07 44° 351° (N) 19:15:22 145.800 FM
JAS-2 17 Apr 19:19:21 19:25:13 87° 75° (ENE) 19:30:35 435.800 - 435.900 CW/SSB, 435.910 FM
STRAND 1 17 Apr 19:28:33 19:33:22 40° 98° (E) 19:38:08 ?
SO-50 17 Apr 19:38:58 19:41:11 13° 340° (NNW) 19:43:25 436.795 FM
SO-67 17 Apr 19:51:08 19:54:33 54° 260° (W) 19:58:01 435.3500 MHz FM
UOSAT-12 17 Apr 20:29:37 20:33:38 28° 323° (NW) 20:37:43 437.025 FM, 437.400 FM
HO-68 17 Apr 20:31:57 20:38:44 49° 63° (ENE) 20:45:33 435.675 MHz FM
ISS 17 Apr 20:45:58 20:49:15 48° 12° (NNE) 20:52:32 145.800 FM
Saudisat 1A 17 Apr 20:47:55 20:52:18 60° 237° (WSW) 20:56:36 436.775 MHz
JAS-2 17 Apr 21:07:59 21:10:59 14° 271° (W) 21:13:52 435.800 - 435.900 CW/SSB, 435.910 FM
STRAND 1 17 Apr 21:08:01 21:12:27 31° 296° (WNW) 21:16:51 ?
FUNcube-1 17 Apr 21:34:20 21:37:03 17° 62° (ENE) 21:39:45 145.950 - 145.970 MHz USB
Oscar 11 17 Apr 21:47:51 21:52:07 64° 73° (ENE) 21:56:25 145.825 FM, Beacon 2401.500 USB
UOSAT-12 17 Apr 22:13:41 22:15:20 12° 347° (NNW) 22:17:00 437.025 FM, 437.400 FM
MaSat-1 17 Apr 22:19:46 22:22:23 32° 115° (ESE) 22:24:47 437.345 MHz
HO-68 17 Apr 22:20:00 22:26:35 39° 263° (W) 22:33:13 435.675 MHz FM
ISS 17 Apr 22:22:46 22:26:04 53° 211° (SSW) 22:29:21 145.800 FM
SO-50 17 Apr 23:02:56 23:06:15 19° 30° (NNE) 23:09:35 436.795 FM
FUNcube-1 17 Apr 23:08:58 23:13:06 56° 260° (W) 23:17:14 145.950 - 145.970 MHz USB
Oscar 11 17 Apr 23:26:24 23:28:46 14° 271° (W) 23:31:09 145.825 FM, Beacon 2401.500 USB
UOSAT-12 17 Apr 23:56:09 23:57:38 11° 12° (NNE) 23:59:07 437.025 FM, 437.400 FM
MaSat-1 17 Apr 23:59:46 00:00:55 12° 311° (NW) 00:02:03 437.345 MHz
Sapphire 18 Apr 00:08:16 00:09:46 11° 101° (ESE) 00:11:17 437.095 MHz 1200 baud AX-25 AFSK
SO-50 18 Apr 00:42:55 00:47:34 77° 51° (NE) 00:52:16 436.795 FM
PCSat 18 Apr 00:49:45 00:54:15 28° 110° (ESE) 00:58:47 145.825 MHz
OPAL 18 Apr 00:58:12 01:00:26 13° 50° (NE) 01:02:40 ?
UOSAT-12 18 Apr 01:35:24 01:39:24 26° 35° (NE) 01:43:23 437.025 FM, 437.400 FM
Sapphire 18 Apr 01:46:49 01:52:12 71° 120° (ESE) 01:57:37 437.095 MHz 1200 baud AX-25 AFSK
AO-27 18 Apr 01:50:03 01:51:17 11° 85° (E) 01:52:31 436.795 MHz FM
ITAMSAT 1 18 Apr 02:00:05 02:02:37 14° 87° (E) 02:05:08 435.822 SSB
Oscar 19 18 Apr 02:07:11 02:11:42 29° 94° (E) 02:16:11 437.125 CW, 437.150 USB
Oscar 16 18 Apr 02:15:00 02:19:48 36° 96° (E) 02:24:33 437.025 USB, Beacon 2401.1428
AO-Echo 18 Apr 02:23:06 02:26:09 17° 89° (E) 02:29:09 ?
SO-50 18 Apr 02:24:42 02:27:36 17° 249° (WSW) 02:30:32 436.795 FM
PCSat 18 Apr 02:32:04 02:37:23 55° 310° (NW) 02:42:44 145.825 MHz
OPAL 18 Apr 02:33:25 02:38:25 71° 70° (ENE) 02:43:32 ?
KITSAT 1 18 Apr 02:40:18 02:46:48 28° 106° (ESE) 02:53:20 435.175 FM
Uribyol 2 18 Apr 02:47:18 02:52:05 37° 97° (E) 02:56:51 436.500 FM
Gurwin Techsat 1B 18 Apr 03:10:43 03:14:37 20° 90° (E) 03:18:29 435.225 FM
UOSAT-12 18 Apr 03:15:17 03:19:59 66° 236° (SW) 03:24:38 437.025 FM, 437.400 FM
AO-27 18 Apr 03:26:29 03:31:42 77° 104° (ESE) 03:36:52 436.795 MHz FM
Sapphire 18 Apr 03:31:35 03:36:08 27° 321° (NW) 03:40:44 437.095 MHz 1200 baud AX-25 AFSK
ITAMSAT 1 18 Apr 03:37:38 03:42:50 88° 286° (WNW) 03:48:01 435.822 SSB
Oscar 19 18 Apr 03:46:17 03:51:12 43° 293° (WNW) 03:56:05 437.125 CW, 437.150 USB
Oscar 16 18 Apr 03:54:26 03:59:08 35° 295° (WNW) 04:03:49 437.025 USB, Beacon 2401.1428
AO-7 18 Apr 03:55:21 03:59:12 14° 84° (E) 04:03:01 29.400 - 29.500 MHz
TMSAT-1 18 Apr 03:59:16 04:04:12 38° 97° (E) 04:09:05 436.925 FM
AO-Echo 18 Apr 04:00:38 04:05:27 65° 288° (WNW) 04:10:07 ?
OPAL 18 Apr 04:14:35 04:17:51 17° 268° (W) 04:21:10 ?
Uosat F 18 Apr 04:18:12 04:21:59 21° 92° (E) 04:25:44 435.120 FM
PCSat 18 Apr 04:18:40 04:22:02 16° 333° (NNW) 04:25:25 145.825 MHz
Uribyol 2 18 Apr 04:26:53 04:31:32 34° 295° (WNW) 04:36:10 436.500 FM
KITSAT 1 18 Apr 04:33:17 04:41:25 80° 307° (NW) 04:49:37 435.175 FM
Gurwin Techsat 1B 18 Apr 04:49:47 04:55:02 63° 289° (WNW) 05:00:16 435.225 FM
JAS-1B 18 Apr 04:57:33 05:03:10 54° 100° (E) 05:08:49 435.800 - 435.900 CW/SSB
AO-27 18 Apr 05:07:10 05:10:38 18° 303° (WNW) 05:14:06 436.795 MHz FM
STRAND 1 18 Apr 05:11:51 05:14:30 14° 55° (NE) 05:17:09 ?
ITAMSAT 1 18 Apr 05:18:40 05:21:37 16° 305° (NW) 05:24:34 435.822 SSB
Sapphire 18 Apr 05:20:07 05:21:33 11° 346° (NNW) 05:23:00 437.095 MHz 1200 baud AX-25 AFSK
AO-40 18 Apr 05:37:53 08:39:07 27° 189° (S) 13:23:23 Beacon 2401.320
TMSAT-1 18 Apr 05:39:20 05:44:05 35° 295° (WNW) 05:48:49 436.925 FM
AO-Echo 18 Apr 05:42:30 05:43:16 10° 308° (NW) 05:44:01 ?
AO-7 18 Apr 05:45:22 05:53:39 65° 105° (ESE) 06:01:54 29.400 - 29.500 MHz
Uosat F 18 Apr 05:56:14 06:01:08 56° 290° (WNW) 06:06:00 435.120 FM
RS-15 18 Apr 05:56:44 06:04:13 21° 99° (E) 06:11:31 29.354 - 29.394 USB, Beacon 29.352 USB
Hamsat 18 Apr 06:26:05 06:29:02 18° 90° (E) 06:31:59 145.90 MHz
KITSAT 1 18 Apr 06:31:08 06:38:07 30° 332° (NNW) 06:45:08 435.175 FM
Gurwin Techsat 1B 18 Apr 06:32:15 06:34:00 12° 309° (NW) 06:35:46 435.225 FM
MaSat-1 18 Apr 06:39:52 06:42:07 21° 54° (NE) 06:44:36 437.345 MHz
STRAND 1 18 Apr 06:47:48 06:52:56 83° 73° (ENE) 06:58:04 ?
JAS-1B 18 Apr 06:48:58 06:53:35 25° 301° (WNW) 06:58:09 435.800 - 435.900 CW/SSB
Sapphire 18 Apr 07:06:17 07:07:41 11° 13° (NNE) 07:09:05 437.095 MHz 1200 baud AX-25 AFSK
AO-7 18 Apr 07:38:41 07:46:01 37° 306° (NW) 07:53:21 29.400 - 29.500 MHz
PCSat 18 Apr 07:50:42 07:53:53 15° 26° (NNE) 07:57:04 145.825 MHz
Hamsat 18 Apr 08:01:06 08:05:21 53° 288° (WNW) 08:09:35 145.90 MHz
RS-15 18 Apr 08:03:27 08:14:41 76° 122° (ESE) 08:25:36 29.354 - 29.394 USB, Beacon 29.352 USB
JAS-2 18 Apr 08:08:45 08:13:58 54° 101° (E) 08:19:35 435.800 - 435.900 CW/SSB, 435.910 FM
MaSat-1 18 Apr 08:18:10 08:20:30 22° 247° (WSW) 08:23:07 437.345 MHz
STRAND 1 18 Apr 08:30:01 08:32:47 15° 272° (W) 08:35:33 ?
KITSAT 1 18 Apr 08:30:37 08:36:30 21° 2° (N) 08:42:23 435.175 FM
SO-67 18 Apr 08:45:24 08:48:55 72° 285° (WNW) 08:52:24 435.3500 MHz FM
Sapphire 18 Apr 08:48:32 08:53:06 27° 39° (NE) 08:57:39 437.095 MHz 1200 baud AX-25 AFSK
PCSat 18 Apr 09:33:21 09:38:39 50° 49° (NE) 09:43:54 145.825 MHz
AO-7 18 Apr 09:34:01 09:36:25 12° 330° (NNW) 09:38:50 29.400 - 29.500 MHz
HO-68 18 Apr 09:43:15 09:49:47 36° 96° (E) 09:56:15 435.675 MHz FM
JAS-2 18 Apr 09:54:38 09:58:50 25° 298° (WNW) 10:03:16 435.800 - 435.900 CW/SSB, 435.910 FM
RS-15 18 Apr 10:17:25 10:27:58 45° 329° (NNW) 10:38:23 29.354 - 29.394 USB, Beacon 29.352 USB
KITSAT 1 18 Apr 10:27:34 10:34:46 33° 31° (NNE) 10:41:55 435.175 FM
Sapphire 18 Apr 10:31:38 10:37:03 72° 240° (WSW) 10:42:26 437.095 MHz 1200 baud AX-25 AFSK
FUNcube-1 18 Apr 10:55:13 10:58:28 21° 93° (E) 11:01:45 145.950 - 145.970 MHz USB
Saudisat 1A 18 Apr 10:59:20 11:01:59 16° 111° (ESE) 11:04:39 436.775 MHz
Oscar 11 18 Apr 11:08:11 11:12:34 83° 103° (ESE) 11:16:56 145.825 FM, Beacon 2401.500 USB
PCSat 18 Apr 11:17:09 11:21:52 31° 249° (WSW) 11:26:34 145.825 MHz
HO-68 18 Apr 11:30:48 11:37:44 54° 296° (WNW) 11:44:39 435.675 MHz FM
Oscar 19 18 Apr 11:53:18 11:54:03 10° 51° (NE) 11:54:47 437.125 CW, 437.150 USB
Oscar 16 18 Apr 11:59:46 12:01:56 13° 53° (NE) 12:04:07 437.025 USB, Beacon 2401.1428
Sapphire 18 Apr 12:17:53 12:19:30 11° 259° (WSW) 12:21:07 437.095 MHz 1200 baud AX-25 AFSK
KITSAT 1 18 Apr 12:23:04 12:31:14 90° 55° (NE) 12:39:20 435.175 FM
FUNcube-1 18 Apr 12:31:06 12:35:05 42° 290° (WNW) 12:39:08 145.950 - 145.970 MHz USB
Uribyol 2 18 Apr 12:32:33 12:35:02 14° 54° (NE) 12:37:31 436.500 FM
RS-15 18 Apr 12:34:12 12:43:46 32° 3° (N) 12:53:19 29.354 - 29.394 USB, Beacon 29.352 USB
Saudisat 1A 18 Apr 12:36:34 12:41:03 77° 309° (NW) 12:45:32 436.775 MHz
Oscar 11 18 Apr 12:46:05 12:48:10 13° 302° (WNW) 12:50:14 145.825 FM, Beacon 2401.500 USB
AO-27 18 Apr 13:10:01 13:14:14 26° 61° (ENE) 13:18:27 436.795 MHz FM
HO-68 18 Apr 13:20:30 13:23:55 14° 317° (NW) 13:27:20 435.675 MHz FM
ITAMSAT 1 18 Apr 13:20:41 13:25:09 30° 63° (ENE) 13:29:38 435.822 SSB
Oscar 19 18 Apr 13:27:18 13:32:20 58° 70° (ENE) 13:37:24 437.125 CW, 437.150 USB
Oscar 16 18 Apr 13:35:17 13:40:24 72° 72° (ENE) 13:45:34 437.025 USB, Beacon 2401.1428
AO-Echo 18 Apr 13:38:32 13:43:11 34° 66° (ENE) 13:47:46 ?
TMSAT-1 18 Apr 13:46:50 13:49:34 14° 54° (NE) 13:52:19 436.925 FM
JAS-1B 18 Apr 13:58:51 14:03:00 16° 52° (NE) 14:06:49 435.800 - 435.900 CW/SSB
Uribyol 2 18 Apr 14:08:32 14:13:41 77° 73° (ENE) 14:18:52 436.500 FM
Saudisat 1A 18 Apr 14:18:15 14:21:23 18° 330° (NNW) 14:24:31 436.775 MHz
KITSAT 1 18 Apr 14:19:40 14:25:37 23° 256° (WSW) 14:31:33 435.175 FM
Gurwin Techsat 1B 18 Apr 14:34:52 14:39:52 44° 67° (ENE) 14:44:53 435.225 FM
OPAL 18 Apr 14:41:33 14:44:12 14° 90° (E) 14:46:52 ?
AO-27 18 Apr 14:48:25 14:53:28 52° 260° (W) 14:58:33 436.795 MHz FM
RS-15 18 Apr 14:48:39 14:59:16 51° 36° (NE) 15:10:00 29.354 - 29.394 USB, Beacon 29.352 USB
AO-7 18 Apr 14:57:11 15:04:08 32° 51° (NE) 15:11:05 29.400 - 29.500 MHz
ITAMSAT 1 18 Apr 14:59:37 15:04:31 42° 262° (W) 15:09:27 435.822 SSB
Oscar 19 18 Apr 15:08:11 15:12:04 21° 269° (W) 15:15:58 437.125 CW, 437.150 USB
Oscar 16 18 Apr 15:17:01 15:20:19 17° 271° (W) 15:23:38 437.025 USB, Beacon 2401.1428
AO-Echo 18 Apr 15:17:04 15:21:55 37° 263° (W) 15:26:41 ?
TMSAT-1 18 Apr 15:23:23 15:28:41 79° 73° (ENE) 15:34:00 436.925 FM
Uosat F 18 Apr 15:34:30 15:39:13 42° 67° (ENE) 15:43:56 435.120 FM
JAS-1B 18 Apr 15:44:50 15:52:46 70° 71° (ENE) 15:59:23 435.800 - 435.900 CW/SSB
Uribyol 2 18 Apr 15:50:42 15:53:47 16° 271° (W) 15:56:52 436.500 FM
Gurwin Techsat 1B 18 Apr 16:15:23 16:19:59 30° 266° (W) 16:24:37 435.225 FM
OPAL 18 Apr 16:18:32 16:23:47 89° 288° (WNW) 16:29:01 ?
